sat.trackr.live / text

‹ back to catalog

STARLINK-31730

NORAD 59555 · 2024-074X

PAYLOAD ACTIVE UNKNOWN

§ Identity

Operator
Country
US
Launch date
2024-04-18
Launch site
AFETR
Launch vehicle
Mass (kg)
RCS (m²)

Purposes: comms

External: N2YO · Heavens-Above · Gunter

§ Orbital elements

Epoch: 2026-09-21T11:31:14.802816Z

Period
94.27 min
Inclination
43.0052°
Eccentricity
0.0001470
Mean motion
15.27564203 rev/d
Perigee alt
482.1 km
Apogee alt
484.1 km
Semi-major
6,861.2 km
B*
-5.0442e-5
RAAN
318.1661°
Arg perigee
268.7152°
Mean anomaly
91.3531°
Rev number
13,595

§ Raw data

STARLINK-317301 59555U 24074X   26264.48003244 -.00001649  00000+0 -50442-4 0  99912 59555  43.0052 318.1661 0001470 268.7152  91.3531 15.27564203135954

JSON: /api/v1/satellites/59555 · /tle

For live sub-satellite position, see the globe view (requires WebGL).

§ Visibility from observer

Set your observer location to see the next 7 days of passes ≥ 10°. The values pass through the URL so the page stays shareable.

No JS? Fill the form by hand. The geolocation button needs JavaScript.